Regional Weather Roundup
Issued by NWS

Home | Current Version | Previous Version | Graphics & Text | Print | Product List | Glossary On
Versions: 1 2 3 4 5 6 7 8 9 10 11 12 13 14 15 16 17 18 19 20 21 22 23 24 25 26 27 28 29 30 31 32 33 34 35 36 37 38 39 40 41 42 43 44 45 46 47 48 49 50
000
ASUS43 KOAX 300102
RWRNE

WEATHER ROUNDUP FOR NEBRASKA
NATIONAL WEATHER SERVICE OMAHA NE
800 PM CDT SUN MAY 29 2016

NOTES: SATELLITE DATA IS BEING USED TO AUGMENT CLOUD COVER ABOVE
       12000 FEET.
       "FAIR" INDICATES FEW OR NO CLOUDS BELOW 12,000 FEET WITH NO
       SIGNIFICANT WEATHER AND/OR OBSTRUCTIONS TO VISIBILITY.

  * THESE STATIONS DO NOT REPORT WEATHER SUCH AS RAIN...SNOW OR FOG.

NEZ001>004-019>022-054>056-300200-
NEBRASKA PANHANDLE

CITY           SKY/WX    TMP DP  RH WIND       PRES   REMARKS
SCOTTSBLUFF    CLOUDY    73  42  32 S8        29.99F
ALLIANCE       CLOUDY    72  50  45 SW7       29.99R
CHADRON        CLOUDY    76  48  37 N7        29.95F
SIDNEY         CLOUDY    68  51  54 E6        30.02S
$$

NEZ057>060-069>072-079>082-300200-
SOUTHWEST NEBRASKA

CITY           SKY/WX    TMP DP  RH WIND       PRES   REMARKS
NORTH PLATTE   TSTM      64  58  80 SE9       30.02R
IMPERIAL       CLOUDY    63  54  72 S9        30.01R THUNDER
LEXINGTON      CLOUDY    72  55  55 S13       29.96F
MCCOOK         LGT RAIN  67  56  67 NE6       30.03R
$$

NEZ005>010-023>029-035>040-094-300200-
NORTH CENTRAL NEBRASKA

CITY           SKY/WX    TMP DP  RH WIND       PRES   REMARKS
VALENTINE      CLOUDY    77  52  41 SE14      29.95F
AINSWORTH      SUNNY     74  57  54 E13       29.98R
BROKEN BOW     CLOUDY    76  58  53 SE12      29.98S
ORD            CLOUDY    78  56  46 SE8       29.96F
$$

NEZ041-046>049-061>064-073>077-083>087-300200-
SOUTH CENTRAL NEBRASKA

CITY           SKY/WX    TMP DP  RH WIND       PRES   REMARKS
GRAND ISLAND   CLOUDY    73  53  49 S16       30.00R
HASTINGS       CLOUDY    73  54  51 SE13      30.00S
KEARNEY *      CLOUDY    72  57  60 S6        29.99S
YORK           CLOUDY    75  57  53 SW9       30.02R
$$

NEZ011>018-030>034-042>045-300200-
NORTHEAST NEBRASKA

CITY           SKY/WX    TMP DP  RH WIND       PRES   REMARKS
NORFOLK        CLEAR     77  57  50 E6        29.99R
ALBION         CLEAR     78  52  40 SE8       29.99S
BLAIR          CLOUDY    80  61  53 E3        30.00S
FREMONT        CLOUDY    82  55  39 CALM      29.99F
TEKAMAH          N/A    N/A N/A N/A MISG      29.97S
$$

NEZ050>053-065>068-078-088>093-300200-
SOUTHEAST NEBRASKA

CITY           SKY/WX    TMP DP  RH WIND       PRES   REMARKS
LINCOLN        CLOUDY    79  61  53 SE3       29.99S
OMAHA EPPLEY   CLOUDY    80  63  55 E6        29.98R
FALLS CITY     PTCLDY    80  60  50 S10       30.00S
PLATTSMOUTH    CLOUDY    81  59  47 S3        30.00R
$$

NEZ044-045-051>053-067-300200-
OMAHA AREA

CITY           SKY/WX    TMP DP  RH WIND       PRES   REMARKS
OMAHA EPPLEY   CLOUDY    80  63  55 E6        29.98R
BLAIR          CLOUDY    80  61  53 E3        30.00S
FREMONT        CLOUDY    82  55  39 CALM      29.99F
OFFUTT AFB     CLOUDY    78  65  65 E2        29.98R
PLATTSMOUTH    CLOUDY    81  59  47 S3        30.00R
$$




USA.gov is the U.S. government's official web portal to all federal, state and local government web resources and services.